Location: Unspecified
(0.0000°N, 0.0000°E)
Time: 10:49:10
(UTC+00:00)

USA 103 - Pass Details

Date: 06 June 2023
Orbit: 2266 x 38091 km, 62.7° (Epoch: 06 September)

Event Time Altitude Azimuth Distance (km) Brightness Sun altitude
Exits shadow 01:45:40 51° 272° (W) 10,576 7.2 -55.5°
Maximum altitude 12:26:37 80° 255° (WSW) 6,784 8.2 66.3°
Drops below altitude 10° 12:45:56 10° 164° (SSE) 6,076 6.5 64.6°
Sets 12:48:34 0° 162° (SSE) 6,654 6.5 64.3°
